[[{"header":{"parameterUnit":"m.s-1","parameterCategory":1,"la1":30.2991,"la2":30.254,"lo1":-89.0895,"lo2":-89.0444,"dy":0.0017,"dx":0.0017,"nx":28,"ny":28,"refTime":"2024-08-31T03:00:00:Z","depth":0,"parameterNumber":2,"parameterNumberName":"U-component_of_WINDS"},"data":[0,0,0,0,0,0,0,0,0,0,0,0,0,0,0,0,0,0,0,0,0,0,0,0,0,0,0,0,0,0,0,0,0,0,0,0,0,0,0,0,0,0,0,0,0,0,0,0,0,0,0,0,0,0,0,0,0,0,-2.5458,-2.5458,0,-2.5436,-2.5436,-2.5436,-2.5365,-2.5364,-2.5362,-2.5361,-2.534,-2.5341,-2.5342,0,0,0,0,0,0,0,0,0,0,0,0,0,-2.544,-2.5441,-2.5458,-2.5458,-2.5458,-2.5436,-2.5436,-2.5436,-2.5365,-2.5364,-2.5362,-2.536,-2.534,-2.5341,-2.5342,0,0,0,0,0,0,0,0,0,0,0,0,0,-2.5436,-2.5441,-2.5458,-2.542,-2.5416,-2.5436,-2.5436,-2.5436,-2.5366,-2.5363,-2.5361,-2.5359,-2.5339,-2.5341,-2.5342,-2.5398,0,0,-2.5346,-2.5347,0,0,0,0,0,0,0,0,-2.5436,-2.5437,-2.5426,-2.5423,-2.5419,-2.5401,-2.5422,-2.5423,-2.5366,-2.5385,-2.536,-2.5358,-2.5362,-2.5362,-2.5363,-2.5397,-2.5396,-2.5346,-2.5347,-2.5348,-2.5348,0,0,0,0,0,0,0,-2.5437,-2.5437,-2.545,-2.5426,-2.5421,-2.5404,-2.5401,-2.5422,-2.5387,-2.5383,-2.5378,-2.5376,-2.536,-2.5362,-2.5362,-2.5396,-2.5346,-2.5347,-2.5348,-2.5349,-2.5473,-2.5476,0,0,0,0,0,0,-2.5442,-2.5438,-2.545,-2.5449,-2.5422,-2.5406,-2.5403,-2.5409,-2.5387,-2.5381,-2.5378,-2.5373,-2.536,-2.536,-2.5361,-2.5423,-2.5348,-2.5349,-2.535,-2.5471,-2.5474,-2.5476,0,0,0,0,0,0,-2.5442,-2.5444,-2.5451,-2.5442,-2.5442,-2.5409,-2.5417,-2.541,-2.5411,-2.5383,-2.5377,-2.5386,-2.5358,-2.5359,-2.5389,-2.5422,-2.535,-2.5351,-2.5468,-2.5472,-2.5475,-2.555,0,0,0,0,0,0,-2.5442,-2.5444,-2.5465,-2.5443,-2.5442,-2.5479,-2.5419,-2.5411,-2.5414,-2.5407,-2.5389,-2.5384,-2.5357,-2.5387,-2.539,-2.5422,-2.5352,-2.5465,-2.547,-2.5474,-2.5544,-2.5556,-2.5566,0,0,0,0,0,-2.5442,-2.5488,-2.5467,-2.5468,-2.5468,-2.5481,-2.5481,-2.5448,-2.5417,-2.5437,-2.5419,-2.5384,-2.5418,-2.5391,-2.5394,-2.5427,-2.5462,-2.5468,-2.5474,-2.554,-2.5554,-2.5565,0,0,0,0,0,0,-2.5515,-2.5484,-2.546,-2.5501,-2.5494,-2.5469,-2.5494,-2.5464,-2.5467,-2.546,-2.542,-2.5417,-2.5452,-2.5443,-2.5413,-2.5479,-2.5434,-2.5441,-2.5484,-2.5497,-2.5507,-2.5508,-2.5353,0,0,0,0,0,-2.5536,-2.555,-2.5522,-2.556,-2.5558,-2.5527,-2.5532,-2.5507,-2.5499,-2.5496,-2.548,-2.5474,-2.5482,-2.5489,-2.5496,-2.5543,-2.5538,-2.5567,-2.5578,-2.5587,-2.5592,-2.5615,-2.5628,-2.5495,-2.5495,-2.5495,0,0,-2.558,-2.5564,-2.5576,-2.5575,-2.5567,-2.5581,-2.5525,-2.5544,-2.5554,-2.5499,-2.5525,-2.5514,-2.5504,-2.5543,-2.5559,-2.5536,-2.5628,-2.5594,-2.5601,-2.5602,-2.5622,-2.5635,-2.5646,-2.5499,-2.5498,-2.5497,0,0,-2.5666,-2.5656,-2.5686,-2.5679,-2.5667,-2.5646,-2.5654,-2.5634,-2.5623,-2.5649,-2.5608,-2.562,-2.5637,-2.5631,-2.563,-2.5714,-2.5682,-2.5718,-2.5773,-2.5795,-2.5806,-2.5815,-2.5843,-2.5854,-2.5724,-2.5724,-2.5724,0,-2.5722,-2.5742,-2.5706,-2.5726,-2.5727,-2.5677,-2.5707,-2.5702,-2.5694,-2.5695,-2.567,-2.5689,-2.5679,-2.5714,-2.5735,-2.5737,-2.5743,-2.5719,-2.5807,-2.5816,-2.5824,-2.585,-2.5861,-2.5728,-2.5728,-2.5727,-2.5727,0,-2.581,-2.5825,-2.585,-2.5842,-2.5846,-2.5871,-2.5839,-2.5847,-2.5823,-2.5804,-2.5831,-2.5818,-2.582,-2.5827,-2.5804,-2.5859,-2.5845,-2.5814,-2.5768,-2.5841,-2.5866,-2.5876,-2.5734,-2.5733,-2.5732,-2.5731,0,0,-2.5941,-2.5913,-2.5922,-2.5917,-2.5901,-2.5912,-2.5935,-2.5936,-2.5943,-2.594,-2.5957,-2.5972,-2.5943,-2.5943,-2.5918,-2.5938,-2.6004,-2.5904,-2.5904,-2.5922,-2.6063,-2.6085,-2.6097,-2.5983,-2.5985,-2.5986,-2.6063,0,-2.6022,-2.6058,-2.6027,-2.6069,-2.6082,-2.6035,-2.6055,-2.6047,-2.6031,-2.6039,-2.6021,-2.6032,-2.5993,-2.5992,-2.601,-2.5992,-2.6031,-2.5986,-2.5998,-2.5999,-2.6001,-2.611,-2.6134,-2.6207,-2.6072,-2.6074,-2.6075,0,-2.6121,-2.612,-2.6163,-2.6142,-2.6147,-2.6165,-2.6163,-2.6172,-2.6162,-2.6149,-2.6148,-2.6118,-2.6139,-2.6095,-2.6123,-2.6093,-2.6097,-2.6089,-2.6091,-2.6089,-2.6041,-2.6111,-2.623,-2.624,-2.609,-2.6089,-2.6088,0,-2.621,-2.622,-2.6247,-2.6245,-2.6222,-2.6235,-2.6227,-2.6214,-2.6217,-2.6216,-2.6217,-2.6219,-2.622,-2.6223,-2.6194,-2.6165,-2.6225,-2.6179,-2.6214,-2.6215,-2.6228,-2.6227,-2.6348,-2.6233,-2.6233,-2.6232,-2.6232,0,-2.6302,-2.6331,-2.6287,-2.6303,-2.6333,-2.6297,-2.6328,-2.6314,-2.6303,-2.6316,-2.6277,-2.629,-2.6252,-2.6261,-2.6239,-2.6265,-2.6266,-2.6255,-2.6249,-2.6258,-2.6259,-2.6258,-2.6252,-2.6235,-2.6235,-2.6234,-2.6234,0,-2.6407,-2.6379,-2.6405,-2.6381,-2.6375,-2.6398,-2.6378,-2.6392,-2.6373,-2.639,-2.6392,-2.6362,-2.6371,-2.6342,-2.6347,-2.6332,-2.637,-2.6356,-2.6373,-2.6368,-2.6403,-2.64,-2.6527,-2.6541,-2.6419,-2.642,-2.6421,0,-2.6467,-2.6487,-2.6465,-2.647,-2.6463,-2.6473,-2.6475,-2.644,-2.6444,-2.6434,-2.6449,-2.6454,-2.6456,-2.6473,-2.6452,-2.6455,-2.644,-2.6484,-2.644,-2.6448,-2.6438,-2.6437,-2.6438,-2.6493,-2.6494,-2.6495,-2.6496,0,-2.6576,-2.6561,-2.6565,-2.6564,-2.6568,-2.6566,-2.6561,-2.6568,-2.6531,-2.6537,-2.6545,-2.6547,-2.655,-2.6556,-2.6554,-2.6546,-2.6515,-2.6511,-2.6518,-2.6527,-2.6536,-2.653,-2.6396,-2.6507,-2.6506,-2.6506,-2.6505,-2.6505,-2.6659,-2.6674,-2.666,-2.6666,-2.6659,-2.6655,-2.6667,-2.6649,-2.6654,-2.6654,-2.6634,-2.6645,-2.6634,-2.6629,-2.6623,-2.6632,-2.6611,-2.6623,-2.6626,-2.6629,-2.6634,-2.6535,-2.6632,-2.6631,-2.6631,-2.6631,-2.663,0,-2.6764,-2.6753,-2.6759,-2.6753,-2.6757,-2.6727,-2.6721,-2.6726,-2.6737,-2.6729,-2.6731,-2.674,-2.6745,-2.6724,-2.6726,-2.6737,-2.6723,-2.6739,-2.6737,-2.6735,-2.6653,-2.6645,-2.675,-2.675,-2.675,-2.675,-2.675,-2.675,-2.682,-2.6843,-2.6827,-2.6846,-2.6835,-2.6845,-2.6843,-2.684,-2.6833,-2.6844,-2.6847,-2.6834,-2.682,-2.6821,-2.6824,-2.6818,-2.682,-2.684,-2.6829,-2.6753,-2.6741,-2.673,-2.6722,-2.6842,-2.6842,-2.691,-2.6911,-2.6911]},{"header":{"parameterUnit":"m.s-1","parameterCategory":1,"la1":30.2991,"la2":30.254,"lo1":-89.0895,"lo2":-89.0444,"dy":0.0017,"dx":0.0017,"nx":28,"ny":28,"refTime":"2024-08-31T03:00:00:Z","depth":0,"parameterNumber":3,"parameterNumberName":"V-component_of_WINDS"},"data":[0,0,0,0,0,0,0,0,0,0,0,0,0,0,0,0,0,0,0,0,0,0,0,0,0,0,0,0,0,0,0,0,0,0,0,0,0,0,0,0,0,0,0,0,0,0,0,0,0,0,0,0,0,0,0,0,0,0,3.1988,3.1988,0,3.2011,3.2011,3.2012,3.1972,3.1971,3.1969,3.1968,3.1989,3.1991,3.1992,0,0,0,0,0,0,0,0,0,0,0,0,0,3.1906,3.1908,3.1988,3.1988,3.1989,3.2011,3.2011,3.2012,3.1972,3.197,3.1969,3.1967,3.1988,3.199,3.1992,0,0,0,0,0,0,0,0,0,0,0,0,0,3.1937,3.1909,3.1988,3.1972,3.197,3.2011,3.2011,3.2012,3.1972,3.197,3.1968,3.1967,3.1988,3.199,3.1993,3.2049,0,0,3.2001,3.2002,0,0,0,0,0,0,0,0,3.1935,3.194,3.1974,3.1973,3.1972,3.1987,3.199,3.2024,3.1973,3.1972,3.1968,3.1966,3.1989,3.1992,3.2001,3.205,3.2051,3.2001,3.2003,3.2004,3.2005,0,0,0,0,0,0,0,3.1933,3.1939,3.1997,3.1974,3.1973,3.1962,3.1964,3.1996,3.1991,3.1972,3.1969,3.1972,3.1988,3.1998,3.2001,3.2052,3.2001,3.2004,3.2005,3.2006,3.2148,3.215,0,0,0,0,0,0,3.1933,3.1937,3.1996,3.1998,3.1948,3.1965,3.1968,3.1984,3.1991,3.199,3.1974,3.197,3.1994,3.1998,3.2001,3.2068,3.2004,3.2007,3.2008,3.2146,3.2149,3.2151,0,0,0,0,0,0,3.1932,3.1939,3.1995,3.1967,3.1973,3.1969,3.1987,3.1985,3.1995,3.1993,3.1991,3.1985,3.1993,3.1997,3.2038,3.2068,3.2008,3.201,3.2144,3.2147,3.215,3.2202,0,0,0,0,0,0,3.193,3.1939,3.1961,3.1968,3.1975,3.2033,3.1989,3.1987,3.2,3.1995,3.2003,3.2002,3.1992,3.2034,3.2041,3.2071,3.2012,3.2141,3.2145,3.2149,3.2197,3.2207,3.2214,0,0,0,0,0,3.1927,3.1974,3.1962,3.197,3.2003,3.2034,3.2038,3.2027,3.2002,3.2024,3.2023,3.2002,3.2064,3.2038,3.2045,3.2077,3.2139,3.2144,3.2149,3.2194,3.2205,3.2214,0,0,0,0,0,0,3.1971,3.1975,3.1962,3.2013,3.2024,3.2028,3.2055,3.2039,3.2056,3.2051,3.2035,3.2037,3.208,3.2082,3.2054,3.2132,3.2097,3.2104,3.2129,3.2139,3.2148,3.2146,3.2015,0,0,0,0,0,3.1986,3.2013,3.2015,3.2059,3.2066,3.206,3.2073,3.2063,3.2073,3.2077,3.2079,3.2089,3.211,3.2125,3.2145,3.2197,3.2198,3.2222,3.2231,3.2238,3.2244,3.2271,3.2282,3.2167,3.2167,3.2167,0,0,3.2019,3.2024,3.2042,3.2068,3.2076,3.2102,3.2064,3.2094,3.2113,3.2081,3.212,3.2121,3.2131,3.2178,3.2199,3.2181,3.2275,3.2244,3.2249,3.2251,3.2277,3.2288,3.2298,3.217,3.217,3.2169,0,0,3.2092,3.2099,3.2137,3.2145,3.2157,3.2153,3.2162,3.2168,3.2168,3.2207,3.2183,3.2206,3.2243,3.2251,3.226,3.2336,3.2317,3.2343,3.2387,3.2414,3.2423,3.2431,3.2458,3.2468,3.2348,3.2349,3.2349,0,3.2131,3.2171,3.2158,3.219,3.2202,3.2176,3.2213,3.2221,3.2239,3.2247,3.2227,3.2274,3.2279,3.2327,3.2346,3.2354,3.2363,3.2342,3.2423,3.2431,3.2438,3.2463,3.2473,3.2352,3.2351,3.2351,3.2351,0,3.2218,3.2246,3.2276,3.2294,3.2309,3.2344,3.2335,3.2352,3.234,3.2337,3.2376,3.2381,3.2401,3.2412,3.2401,3.2459,3.2447,3.2426,3.239,3.2452,3.2476,3.2485,3.2356,3.2355,3.2354,3.2353,0,0,3.232,3.2331,3.2342,3.235,3.236,3.2381,3.2414,3.2435,3.2449,3.2462,3.2488,3.2521,3.2501,3.2511,3.25,3.2524,3.2583,3.2499,3.2499,3.2515,3.2647,3.2664,3.2675,3.2571,3.2572,3.2574,3.2646,0,3.2393,3.2451,3.244,3.2496,3.2522,3.2496,3.2525,3.2534,3.2532,3.2553,3.255,3.2573,3.2545,3.2551,3.2573,3.2572,3.261,3.2566,3.2595,3.2596,3.2594,3.2688,3.2705,3.2774,3.2655,3.2657,3.2658,0,3.2486,3.2503,3.2562,3.2568,3.2578,3.2605,3.2622,3.2643,3.2652,3.2649,3.266,3.2645,3.2676,3.2641,3.2684,3.2654,3.2665,3.2666,3.2668,3.2671,3.2631,3.2693,3.2795,3.2806,3.2672,3.2671,3.267,0,3.2555,3.2592,3.2632,3.2639,3.2648,3.2666,3.2671,3.2678,3.2691,3.2706,3.2714,3.2732,3.2742,3.2756,3.2746,3.2721,3.2791,3.2754,3.2789,3.2789,3.2805,3.2804,3.2911,3.2811,3.2811,3.2811,3.2811,0,3.2637,3.2674,3.2663,3.2688,3.2728,3.2714,3.2755,3.2755,3.2762,3.2786,3.2764,3.2787,3.2771,3.2792,3.2784,3.2821,3.2826,3.2824,3.2821,3.2826,3.2826,3.2833,3.2828,3.2814,3.2813,3.2813,3.2812,0,3.2721,3.2715,3.2757,3.2762,3.2763,3.2793,3.2796,3.2819,3.2815,3.2845,3.2851,3.2845,3.2869,3.286,3.2884,3.2879,3.2926,3.2917,3.2923,3.2921,3.2956,3.2953,3.3071,3.3086,3.2977,3.2978,3.2979,0,3.2775,3.2803,3.281,3.2825,3.2831,3.2855,3.2868,3.2855,3.287,3.2882,3.2903,3.2925,3.2942,3.298,3.2977,3.2996,3.2988,3.3028,3.299,3.2994,3.2988,3.2987,3.299,3.3035,3.3036,3.3038,3.3038,0,3.2871,3.2866,3.2886,3.2906,3.2922,3.2937,3.2949,3.2962,3.295,3.2967,3.2991,3.3004,3.3029,3.3051,3.3068,3.3071,3.3053,3.305,3.3059,3.3065,3.3067,3.3066,3.2944,3.3048,3.3047,3.3046,3.3045,3.3045,3.2941,3.2965,3.2974,3.2997,3.3005,3.3017,3.3038,3.3037,3.3058,3.3078,3.3068,3.3096,3.3104,3.3124,3.313,3.3151,3.3135,3.3148,3.3152,3.3155,3.316,3.3064,3.3154,3.3154,3.3153,3.3153,3.3153,0,3.3036,3.304,3.3062,3.308,3.3098,3.308,3.3092,3.3108,3.3134,3.3143,3.316,3.3187,3.3208,3.3207,3.3226,3.3243,3.3235,3.3248,3.3247,3.3248,3.3173,3.3163,3.3254,3.3254,3.3254,3.3254,3.3254,3.3254,3.3088,3.3127,3.3123,3.3166,3.3169,3.3197,3.3206,3.3216,3.3223,3.3255,3.3273,3.3272,3.3277,3.3296,3.3314,3.3313,3.3321,3.3337,3.3333,3.3263,3.3253,3.3244,3.3235,3.3339,3.3339,3.3407,3.3408,3.3408]}]]